Location: Borojevi?i
(45.0486°N, 16.2297°E)
Time: 21:14:11
(UTC+00:00)

Meteor 1-4 Rocket - Pass Details

Date: 08 August 2020
Orbit: 449 x 502 km, 81.2° (Epoch: 21 September)

Event Time Altitude Azimuth Distance (km) Brightness Sun altitude
Rises 20:16:14 0° 344° (NNW) 2,486 7.3 -18.6°
Reaches altitude 10° 20:18:21 10° 340° (NNW) 1,601 6.2 -18.9°
Maximum altitude 20:21:45 51° 263° (W) 576 3.1 -19.3°
Enters shadow 20:22:43 37° 212° (SSW) 717 3.2 -19.4°
